Terug naar catalogus

CZ-6A DEB

ActiefSSO
NORAD 54525·DEBRIS·🇨🇳 China

Gelanceerd Nov 11, 2022 vanaf Taiyuan Satellite Launch Center

Loading…

Volgende Passages (komende 24 uur)

TLE

VersSource: Space-Track

Epoch: Sep 14, 2026, 10:12 UTC

1 54525U 22151KD  26257.42503896 -.00000103  00000-0 -36003-4 0  9993
2 54525  98.8682 245.1149 0069880 126.1783 234.5875 14.05513355196685

Volg CZ-6A DEB in realtime met AllMySat

Download on the App Store